Location: Newark
(2.6153°S, 29.9989°E)
Time: 03:12:33
(UTC+00:00)

Envisat - Visible Passes

Search period start: 22 July 2019 00:00
Search period end: 01 August 2019 00:00
Orbit: 764 x 766 km, 98.1° (Epoch: 21 July)

Date Brightness Start Highest point End Pass type
(mag) Time Alt. Az. Time Alt. Az. Time Alt. Az.
22 Jul 3.5 16:19:08 10° SE 16:23:51 39° ENE 16:28:31 10° N visible
22 Jul 5.8 18:00:41 10° SW 18:02:32 12° WSW 18:04:24 10° W visible
23 Jul 4.6 17:21:22 10° SSW 17:25:57 34° WSW 17:30:30 10° NW visible
24 Jul 3.0 16:44:12 10° SSE 16:49:18 83° ENE 16:54:22 10° N visible
25 Jul 5.9 03:40:37 10° ENE 03:42:59 13° ESE 03:45:20 10° SE visible
25 Jul 5.6 17:48:12 10° SW 17:51:21 17° WSW 17:54:30 10° WNW visible
26 Jul 4.0 17:09:52 10° S 17:14:44 47° WSW 17:19:35 10° NNW visible
27 Jul 3.1 16:33:04 10° SSE 16:38:05 60° ENE 16:43:04 10° N visible
28 Jul 5.2 17:36:15 10° SSW 17:40:09 23° WSW 17:44:03 10° NW visible
29 Jul 3.4 16:58:30 10° S 17:03:32 64° WSW 17:08:31 10° NNW visible
30 Jul 3.4 16:22:03 10° SSE 16:26:52 44° ENE 16:31:39 10° N visible
30 Jul 6.0 18:04:47 10° WSW 18:05:32 10° WSW 18:06:18 10° W visible
31 Jul 4.8 17:24:32 10° SSW 17:28:57 30° WSW 17:33:21 10° NW visible
